Regional Weather Roundup
Issued by NWS Mt. Holly, NJ

Home | Current Version | Previous Version | Text Only | Print | Product List | Glossary On
Versions: 1 2 3 4 5 6 7 8 9 10 11 12 13 14 15 16 17 18 19 20 21 22 23 24 25 26 27 28 29 30 31 32 33 34 35 36 37 38 39 40 41 42 43 44 45 46 47 48 49 50
000
ASUS41 KPHI 020911
RWRPHI

REGIONAL WEATHER ROUNDUP
NATIONAL WEATHER SERVICE MOUNT HOLLY NJ
500 AM EDT THU APR 02 2015

NOTE:  "FAIR" INDICATES FEW OR NO CLOUDS BELOW 12,000 FEET WITH NO
SIGNIFICANT WEATHER AND/OR OBSTRUCTIONS TO VISIBILITY.

 * = STATION DOES NOT REPORT PRECIPITATION (E.G. RAIN, SNOW, ETC.)
        OR FOG.

NJZ015>026-021000-
SOUTHERN NEW JERSEY

CITY           SKY/WX    TMP DP  RH WIND       PRES   REMARKS
POMONA         CLEAR     38  32  79 SW5       30.26S WCI  34
RIO GRANDE*      N/A    N/A N/A N/A MISG        N/A
MILLVILLE      CLEAR     29  26  89 CALM      30.26S
WRIGHTSTOWN    CLEAR     33  25  71 CALM      30.22R
MOUNT HOLLY    CLEAR     33  24  69 CALM      30.25S
TRENTON        CLEAR     31  23  72 CALM      30.24R

$$
NJZ001>014-021000-
NORTHERN NEW JERSEY

CITY           SKY/WX    TMP DP  RH WIND       PRES   REMARKS
SUSSEX         CLEAR     25  20  81 CALM      30.21S
ANDOVER*         N/A     26  22  84 CALM      30.21S
MORRISTOWN     CLEAR     28  25  86 CALM      30.23S
NEWARK         PTCLDY    37  22  54 SW5       30.24R WCI  33
TETERBORO      CLEAR     34  19  54 CALM      30.23R
CALDWELL       CLEAR     29  20  69 CALM      30.24R
SOMERVILLE     CLEAR     25  21  85 CALM      30.22S
ALLAIRE*       CLEAR     34  21  60 SW7       30.25R WCI  28
TOMS RIVER*    CLEAR     30  28  93 CALM      30.25R

$$
PAZ043-044-047-054-055-060>062-066>071-021000-
EASTERN PENNSYLVANIA

CITY           SKY/WX    TMP DP  RH WIND       PRES   REMARKS
PHILADELPHIA   PTCLDY    38  27  64 S3        30.26S
NORTH PHILA    CLEAR     34  24  67 CALM      30.26S
BLUE BELL      CLEAR     30  28  93 CALM      30.24R
DOYLESTOWN     CLEAR     32  23  69 S3        30.23R
QUAKERTOWN*    CLEAR     27  23  86 CALM      30.24R
POTTSTOWN      CLEAR     28  23  81 NE3       30.25R
LANCASTER      CLEAR     30  27  88 E3        30.22S
COATESVILLE    CLEAR     37  28  70 CALM      30.23S
READING        CLEAR     30  25  81 N3        30.24R
ALLENTOWN      CLEAR     29  23  78 CALM      30.23S
MOUNT POCONO   PTCLDY    31  24  75 W5        30.14F WCI  26
HAZLETON       PTCLDY    28  27  93 CALM      30.19F
WILKES BARRE   PTCLDY    31  24  75 CALM      30.17F

$$
DEZALL-MDZ008-012-015-019-020-021000-
DELAWARE AND EASTERN MARYLAND

CITY           SKY/WX    TMP DP  RH WIND       PRES   REMARKS
WILMINGTON     CLEAR     35  27  72 CALM      30.26S
DOVER          CLEAR     37  37 100 S3        30.26S
GEORGETOWN     CLEAR     32  30  92 CALM      30.28S
EASTON         FAIR      38  35  89 CALM      30.31R
PATUXENT       CLEAR     42  30  62 SW10      30.26S
OCEAN CITY     CLEAR     32  29  88 CALM      30.29R
WALLOPS ISLAND CLEAR     34  30  85 SW3       30.29R
CAMBRIDGE      FAIR      37  34  87 CALM      30.27R
SALISBURY      CLEAR     30  27  88 CALM      30.28R

$$
PAZ001-021-NYZ056-072-MDZ011-DCZ001-021000-
OTHER NEARBY LOCATIONS

CITY           SKY/WX    TMP DP  RH WIND       PRES   REMARKS
HARRISBURG     PTCLDY    34  27  75 E3        30.21S
STATE COLLEGE  CLEAR     30  27  90 CALM      30.15S
WILLIAMSPORT   PTCLDY    28  25  88 CALM      30.20S
BINGHAMTON     PTCLDY    32  19  58 S6        30.11S WCI  26
NEW YORK CITY  CLEAR     42  15  33 W3        30.25R
BALTIMORE      PTCLDY    39  27  62 CALM      30.24R
WASHINGTON DC  CLEAR     43  31  62 S6        30.26S

$$


USA.gov is the U.S. government's official web portal to all federal, state and local government web resources and services.